Location: Umburanas
(4.5000°S, 37.9667°W)
Time: 23:18:51
(UTC+00:00)

Cosmos 1869 Rocket - Pass Details

Date: 19 November 2019
Orbit: 604 x 634 km, 82.5° (Epoch: 07 December)

Event Time Altitude Azimuth Distance (km) Brightness Sun altitude
Exits shadow 21:57:07 40° 128° (SE) 911 4.1 -21.7°
Drops below altitude 10° 22:00:23 10° 162° (SSE) 1,998 6.2 -22.5°
Sets 22:02:41 0° 167° (SSE) 2,912 7.1 -23.0°
